Weather in Easter Island

Chile     27°07′17″S   109°21′42″W
temp.,
°C
wind,
m/s
gust,
m/s
humid.,
%
clouds,
%
prec.,
mm/h
press.,
hPa
HPBL,
m
28 july, wed
wed2800:00+20ene55790 0.1 1029606
03:00+20ene44765 0.0 1028711
06:00+20ne557868 0.2 1026716
09:00+20ene667711 0.1 1027769
12:00+20ene787463 0.1 1027875
15:00+20ene7771100 0.0 1025999
18:00+20ene66675 0.0 10251094
21:00+20ene566929 0.0 1026855
29 july, thu
thu2900:00+20ene5572100 0.0 1025659
03:00+19ne4480100 0.2 1024452
06:00+20nne7774100 0.9 1023853
09:00+20ne8870100 0.1 1024823
12:00+20ne7877100 0.2 1024793
15:00+20n8874100 0.5 1021910
18:00+20nne897283 0.8 10201025
21:00+20nne9972100 0.1 1021946
30 july, fri
fri3000:00+20nne9973100 0.1 1021929
03:00+20n997699 0.0 1020764
06:00+20n8979100 0.1 1019687
09:00+20n898185 0.0 1020753
12:00+20n91178100 0.0 1020807
15:00+21n1013785 0.0 1018955
18:00+20n1011845 0.1 1018920
21:00+20nnw810858 0.1 1020861
31 july, sat
sat3100:00+20nnw9118467 0.1 1019883
03:00+20n9108490 0.0 1018868
06:00+20n81083100 0.0 1017779
09:00+20n101284100 0.1 1018858
12:00+20nnw91284100 0.6 1019884
15:00+21nnw9137924 0.5 1017745
18:00+21nnw91281100 0.6 1017743
21:00+21nnw1013806 0.1 1019639
1 august, sun
sun100:00+21nnw10138272 0.3 1019718
03:00+21nnw1013825 0.3 1018717
06:00+21nnw9128199 0.6 1017701
09:00+21nnw101382100 0.3 1018712
12:00+21nnw111483100 0.5 1017717
15:00+21nnw11158444 0.0 1015778
18:00+21nnw121582100 0.4 1014792
21:00+21nnw121682100 1.1 1015798